Tracking 28790 objects as of 19-Apr-2024
HD Live streaming from Space Station
objects crossing your sky now

ISO DEB

Track ISO DEB now!


NORAD ID: 24700
Int'l Code: 1995-062C
Perigee: 1,080.3 km
Apogee: 70,480.4 km
Inclination: 1.9 °
Period: 1,435.4 minutes
Semi major axis: 42151 km
RCS: 0.7943 m2 (medium)
Launch date: November 17, 1995
Source: European Space Agency (ESA)
Launch site: FRENCH GUIANA (FRGUI)

Note: This is SATELLITE DEBRIS
Your satellite tracking list
Your tracking list is empty




NASA's NSSDC Master Catalog

Two Line Element Set (TLE):
1 24700U 95062C   24109.36033949  .00000052  00000-0  00000-0 0  9995
2 24700   1.9319 341.6895 8232251 329.9341 333.6705  1.00319638 35060
Source of the keplerian elements: AFSPC